This demonstration page uses our WeatherBlox Daily Observations layout. Learn more.

39.92423, -83.80882

Hourly Observations for May 28, 2017

Temp ( °F °C ) Dew Point ( °F °C ) Humidity (%) Winds ( mph kmh ) Pressure ( in mb ) Visibility ( mi km ) Precip ( " mm )
12:56 am 00:56 Cloudy 67 19.4 64 17.8 91 91 E 5 7 29.81 1009 10 16.0934 0 0
1:56 am 01:56 Mostly Clear 66 18.9 64 17.8 93 93 E 6 9 29.78 1009 10 16.0934 0 0
2:36 am 02:36 Mostly Cloudy 66 19 64 18 94 94 ESE 8 13 29.77 1008 10 16.0934 0 0
2:44 am 02:44 Partly Cloudy 66 19 64 18 94 94 ESE 6 9 29.77 1008 10 16.0934 0 0
2:56 am 02:56 Mostly Clear 65 18.3 63 17.2 93 93 E 6 9 29.78 1008 9 14.48406 0 0
3:56 am 03:56 Clear with Mist and Fog 63 17.2 62 16.7 97 97 ENE 3 6 29.78 1009 4 6.43736 0 0
4:10 am 04:10 Clear with Mist and Fog 63 17 63 17 100 100 E 6 9 29.77 1008 2.5 4.02335 0 0
4:17 am 04:17 Clear with Mist and Fog 63 17 63 17 100 100 Calm 29.74 1007 3 4.82802 0 0
4:24 am 04:24 Clear with Mist and Fog 63 17 63 17 100 100 Calm 29.77 1008 2 3.21868 0 0
4:31 am 04:31 Clear with Mist and Fog 63 17 63 17 100 100 Calm 29.77 1008 1.75 2.816345 0 0
4:36 am 04:36 Clear with Mist and Fog 63 17 63 17 100 100 E 5 7 29.74 1007 0.75 1.207005 0 0
4:44 am 04:44 Clear with Fog 63 17 61 16 94 94 ESE 6 9 29.74 1007 0.5 0.80467 0 0
4:49 am 04:49 Clear with Mist and Fog 63 17 61 16 94 94 ESE 5 7 29.74 1007 1 1.60934 0 0
4:52 am 04:52 Clear with Mist and Fog 63 17 61 16 94 94 ESE 5 7 29.74 1007 2 3.21868 0 0
4:56 am 04:56 Clear with Mist and Fog 62 16.7 62 16.7 100 100 ESE 5 7 29.76 1008 2 3.21868 0 0
5:17 am 05:17 Clear with Mist and Fog 63 17 63 17 100 100 ESE 5 7 29.74 1007 1.5 2.41401 0 0
5:36 am 05:36 Clear with Mist and Fog 64 18 64 18 100 100 S 7 11 29.74 1007 3 4.82802 0 0
5:56 am 05:56 Clear with Mist and Fog 64 17.8 63 17.2 96 96 SSW 5 7 29.76 1008 5 8.0467 0 0
6:19 am 06:19 Mostly Cloudy 64 18 63 17 94 94 S 6 9 29.74 1007 7 11.26538 0 0
6:56 am 06:56 Cloudy 64 17.8 62 16.7 93 93 S 9 15 29.76 1008 10 16.0934 0 0
7:56 am 07:56 Cloudy 65 18.3 62 16.7 90 90 SSW 6 9 29.76 1008 10 16.0934 0 0
8:56 am 08:56 Cloudy 66 18.9 63 17.2 90 90 SW 6 9 29.77 1008 10 16.0934 0 0
9:16 am 09:16 Partly Cloudy 68 20 63 17 83 83 SW 8 13 29.77 1008 10 16.0934 0 0
9:56 am 09:56 Mostly Sunny 69 20.6 63 17.2 81 81 SW 12 19 29.78 1008 10 16.0934 0 0
10:33 am 10:33 Mostly Cloudy 70 21 64 18 83 83 SSW 9 15 29.74 1007 10 16.0934 0 0
10:44 am 10:44 Partly Cloudy 72 22 64 18 78 78 SW 9 15 29.74 1007 10 16.0934 0 0
10:56 am 10:56 Mostly Sunny 72 22.2 64 17.8 76 76 SSW 12 19 29.76 1008 10 16.0934 0 0
11:56 am 11:56 Sunny 73 22.8 63 17.2 71 71 S 10 17 29.76 1008 10 16.0934 0 0
12:56 pm 12:56 Partly Cloudy 73 22.8 63 17.2 71 71 SSW 10 17 29.76 1008 10 16.0934 0 0
1:14 pm 13:14 Mostly Cloudy 75 24 64 18 69 69 SSW 13 20 29.71 1006 10 16.0934 0 0
1:56 pm 13:56 Mostly Cloudy 76 24.4 64 17.8 67 67 WSW 14 22 29.75 1007 10 16.0934 0 0
2:56 pm 14:56 Mostly Cloudy 76 24.4 63 17.2 64 64 SW 18 30 29.75 1007 10 16.0934 0 0
3:56 pm 15:56 Mostly Cloudy 77 25 64 17.8 64 64 WSW 18 30 29.75 1007 10 16.0934 0 0
4:56 pm 16:56 Mostly Cloudy 75 23.9 62 16.7 64 64 WSW 17 28 29.75 1007 10 16.0934 0 0
5:56 pm 17:56 Cloudy 75 23.9 61 16.1 62 62 SW 16 26 29.75 1008 10 16.0934 0 0
6:56 pm 18:56 Sunny 73 22.8 62 16.7 69 69 SW 16 26 29.75 1007 10 16.0934 0 0
7:56 pm 19:56 Partly Cloudy 71 21.7 61 16.1 71 71 SW 14 22 29.76 1008 10 16.0934 0 0
8:56 pm 20:56 Mostly Cloudy 69 20.6 62 16.7 78 78 WSW 9 15 29.78 1009 10 16.0934 0 0
9:07 pm 21:07 Cloudy with Thunderstorms 70 21 63 17 78 78 SW 10 17 29.77 1008 10 16.0934 0 0
9:22 pm 21:22 Cloudy 70 21 63 17 78 78 SW 12 19 29.77 1008 10 16.0934 0 0
9:56 pm 21:56 Cloudy with Light Rain 67 19.4 62 16.7 84 84 VRB 5 7 29.76 1008 10 16.0934 0.01 0.254
10:56 pm 22:56 Mostly Cloudy 65 18.3 60 15.6 84 84 WSW 10 17 29.8 1009 10 16.0934 0 0.0254
11:56 pm 23:56 Cloudy with Light Rain 64 17.8 59 15 84 84 W 6 9 29.81 1009 10 16.0934 0 0.0254

Powered by AerisWeather